Погода в Ноглики

Погода в Ноглики : погода сейчас, прогноз погоды и архив. Всё, что Вы хотите узнать о погоде в Ноглики!

Хотите узнать прогноз погоды в Ноглики? Тогда Вам сюда: Погода в Ноглики

Поиск расширенной информации на нашем сайте:

Другие новости

Новости СМИ2

Главная страница сайта

Новости сайта

03.07.2017

Напоминаем, что на нашем специализированном сайте Метеоцентр.Азия вы можете получить высокодетализированные автоматические прогнозы погоды по пунктам России, СНГ и мира в авиационном формате (включающие направление и скорость ветра, видимость, явления погоды, количество и форму облачности, нижнюю и верхнюю границу облачности).

Рекомендуем: подбор тура пегас тур

Погода в Ноглики - сегодня

Время (UTC), дата Ветер
(°,м/с) 
Видим.   Явления Облачность Т
(°С)
Тd
(°С)
f(%) Тe
(°С)
Pmin
(гПа)
dP
(гПа)
Po
(мм)
O2
(г/м3)
Тmin Tmax R s Состояние
почвы
21 21.11.17 230 (ЮЗ) 2-3{03}  10 км  слаб. ливневой снег  9/9 400 м кучево-дожд. 
[Cb cap]
-13.5 -14.7 91 -16  1012.4  -0.6  755  321  -19.2    0.0  22  равномерный
сухой снег
100% 
00 22.11.17 тихо () {03}  20000 м  слаб. ливневой снег  9/8 420 м кучево-дожд., средняя, верхняя 
[Cb cap|Ac trans|Ci sp]
-13.3 -14.6 90 -13  1011.6  -0.8  755  321           
03 22.11.17 тихо () {03}  20000 м  {ливн. осадки}  8/3 300 м кучево-дожд., средняя, верхняя 
[Cb cap|Ac trans|Cs]
-6.4 -8.5 85 -6  1008.5  -2.9  753  311           
06 22.11.17 010 (С) 1{03}  20000 м  {ливн. осадки}  10/4 600 м средняя 
[Sc|Ac trans]
-8.3 -11.4 78 -8  1007.1  -1.4  751  313           
09 22.11.17 330 (СЗ) 1-1{02}  10 км    9/6 600 м кучево-дожд., средняя 
[Cb cap|Ac trans]
-8.1 -10.7 82 -8  1005  -2  750  312    -6.4  0.0     
12 22.11.17 280 (З) 1{03}  10 км  слаб. ливневой снег  10/10 330 м кучево-дожд. 
[Cb cap]
-8 -9.1 92 -8  1003.9  -1.1  749  312           
15 22.11.17 220 (ЮЗ) 1-2{03}  10 км  {ливн. осадки}  10/10 660 м кучево-дожд. 
[Cb cap]
-7.9 -7.9 100 -8  1003.4  -0.5  749  312           
18 22.11.17 260 (З) 2-4{05}  10 км    н/о 
-7.5 -7.5 100 -9  1003.7  0.4  749  311           
21 22.11.17 230 (ЮЗ) 4-7{07}  10 км    8/4 600 м средняя 
[Sc|Ac trans]
-10.1 -10.6 96 -14  1004.6  0.8  750  315  -10.9    0.8  23  равномерный
сухой снег
100% 
00 23.11.17 240 (ЮЗ) 2-5{07}  20000 м    4/0 верхняя 
[Ci sp]
-10.4 -12.4 85 -12  1004.7  750  315  -11.3         
03 23.11.17 270 (З) 3-6{08}  20000 м    3/0 верхняя 
[Ci fib]
-7 -11 73 -10  1003.4  -1.2  749  311           
06 23.11.17 250 (З) 3-4{07}  20000 м    6/3 600 м верхняя 
[Sc|Ci fib]
-8.9 -11.9 79 -12  1003.5  749  313           
09 23.11.17 230 (ЮЗ) 3-6{07}  10 км    6/3 600 м верхняя 
[Sc|Ci sp]
-10.7 -12.2 89 -14  1004.1  0.5  749  315    -6.6       
12 23.11.17 230 (ЮЗ) 4-6{08}  10 км    6/6 600 м 
[Sc]
-12.2 -13.7 89 -16  1003.2  -0.9  749  317           
15 23.11.17 230 (ЮЗ) 3-5{08}  10 км    1/0 верхняя 
[Ci fib]
-12.7 -14.5 86 -16  1001.4  -1.8  747  317           
18 23.11.17 250 (З) 4-7{09}  10 км    3/3 600 м 
[Sc]
-12.2 -14.3 84 -16  998.1  -3.3  745  315           
21 23.11.17 230 (ЮЗ) 4-7{08}  10 км    9/9 450 м кучево-дожд. 
[Cb cap]
-10.4 -12.4 85 -14  995.6  -2.4  743  312  -12.9      22  равномерный
сухой снег
100% 
00 24.11.17 240 (ЮЗ) 4-6{08}  1000 м  ливневой снег  10/10 240 м кучево-дожд. 
[Cb cap]
-9 -10.9 86 -13  993.4  -2.2  741  310           
03 24.11.17 280 (З) 4-7{09}  4000 м  слаб. ливневой снег  10/10 240 м кучево-дожд. 
[Cb cap]
-5.9 -8.7 81 -9  991.8  -1.4  740  306           
06 24.11.17 300 (СЗ) 5-10{13}  1000 м  ливневой снег  10/10 100 м кучево-дожд. 
[Cb cap]
-8.2 -8.7 96 -13  995  3.1  742  309           
09 24.11.17 300 (СЗ) 5-10{15}  10 км  слаб. ливневой снег  10/10 570 м кучево-дожд. 
[Cb cap]
-9 -12.5 76 -14  1000.7  5.6  747  312    -5.8     
12 24.11.17 270 (З) 4-8{10}  10 км  {ливн. осадки}  8/8 420 м кучево-дожд. 
[Cb cap]
-11.6 -14.3 80 -16  1003.6  2.8  749  316           
15 24.11.17 260 (З) 3-6{08}  10 км    ясно 
-14.1 -16.8 80 -18  1004.7  1.1  750  320           
18 24.11.17 260 (З) 4-7{07}  10 км  слаб. ливневой снег  9/9 300 м кучево-дожд. 
[Cb cap]
-14.8 -18 77 -19  1005.8  1.1  750  321           
21 24.11.17 260 (З) 2-3{07}  10 км  {ливн. осадки}  3/0 верхняя 
[Ci fib]
-18.2 -20.5 82 -21  1006.4  0.5  751  326  -18.2    0.0  25  равномерный
сухой снег
100% 
Время (UTC), дата Ветер
(°,м/с) 
Видим.   Явления Облачность Т
(°С)
Тd
(°С)
f(%) Тe
(°С)
Pmin
(гПа)
dP
(гПа)
Po
(мм)
O2
(г/м3)
Тmin Tmax R s Состояние
почвы

Для получения пояснительной информации подведите курсор к названию столбца.

ПОГОДА в Ноглики - архив

Всё, что Вы хотите узнать о погоде в Ноглики - удобно и подробно!

Выберите нужную дату (начиная с 1 января 2015* года) и нажмите кнопку "Найти".
Будут отображены архивные сводки погоды по пункту Ноглики, начиная с указанной даты.


Отображать данные в формате CSV (для использования в таблицах Excel)


Внимание! Наш архив погоды предназначен исключительно для личного некоммерческого использования в познавательных целях. Если Вам необходимы официальные справки о состоянии погоды (для производственных, юридических, коммерческих и т.п. целей), обращайтесь в органы Росгидромета.

*Примечание: данная дата относится к архиву по метеостанциям СССР (Россия, СНГ, Балтия).
Архив по метеостанциям Зарубежной Европы и Азии (кроме Китая) хранится 10 дней, по другим регионам земного шара (Китай, Африка, Америка, Австралия, Океания) - 1 день.

Ноглики - район местоположения метеостанции


Название, широта, долгота, высота метеостанции:
Ноглики 51.9°ш. 143.1°д. 34 м над ур. моря [Российская Федерация]

Дополнительная информация

В oтличие oт бoльшинства пoгoдных сайтoв мы публикуем пoдрoбную метеoинфoрмацию в детальнoм прoфессиoнальнoм фoрмате.

Характеристики температуры и влажнoсти вoздуха измеряются на высoте 2 м в тени вдали oт зданий и деревьев.
Скoрoсть ветра измеряется на высoте 10 м (на урoвне рoста челoвека скoрoсть ветра ниже в 1.5-2 раза). Если метеoстанция нахoдится в гoрoде или в лесу, тo скoрoсть ветра занижена на 2-4 м/с пo сравнению с oткрытым местoм. Скoрoсть ветра над акватoриями крупных рек и oзёр, а также на вершинах хoлмoв на 2-5 м/с выше, чем в oбычных услoвиях.
Атмoсфернoе давление в разных тoчках местнoсти мoжет значительнo oтличаться oт давления на метеoстанции, в зависимoсти oт услoвий рельефа (при пoдъёме на 10 м давление пoнижается примернo на 1 мм рт.ст.).